| time (UTC) | temp C | wind direction | speed KPH | gust KPH | rain 1hr cm | rain 24hr cm | rain mn cm | humidity % | barometer mb |
| 20260504214509 | 16 | 343 | 8.0 | 14.5 | 0.00 | 0.00 | 0.00 | 41 | 999.8 |
| 20260504213007 | 16 | 24 | 9.7 | 16.1 | 0.00 | 0.00 | 0.00 | 42 | 999.7 |
| 20260504211504 | 16 | 355 | 9.7 | 22.5 | 0.00 | 0.00 | 0.00 | 42 | 999.5 |
| 20260504210005 | 16 | 355 | 25.7 | 45.1 | 0.00 | 0.00 | 0.00 | 44 | 999.5 |
| 20260504204502 | 16 | 346 | 30.6 | 54.7 | 0.00 | 0.00 | 0.00 | 42 | 999.4 |
| 20260504203002 | 16 | 5 | 25.7 | 37.0 | 0.00 | 0.00 | 0.00 | 38 | 999.4 |
| 20260504201500 | 16 | 5 | 30.6 | 45.1 | 0.00 | 0.00 | 0.00 | 38 | 999.6 |
| 20260504194559 | 17 | 5 | 40.2 | 66.0 | 0.00 | 0.00 | 0.00 | 33 | 999.5 |
| 20260504193059 | 19 | 278 | 12.9 | 22.5 | 0.00 | 0.00 | 0.00 | 25 | 998.9 |
| 20260504191558 | 18 | 251 | 8.0 | 30.6 | 0.00 | 0.00 | 0.00 | 28 | 998.5 |
| 20260504184604 | 20 | 269 | 11.3 | 22.5 | 0.00 | 0.00 | 0.00 | 28 | 998.2 |
| 20260504183100 | 20 | 262 | 17.7 | 25.7 | 0.00 | 0.00 | 0.00 | 27 | 998.5 |
| 20260504181554 | 20 | 194 | 11.3 | 17.7 | 0.00 | 0.00 | 0.00 | 26 | 998.5 |
| 20260504180054 | 21 | 215 | 8.0 | 20.9 | 0.00 | 0.00 | 0.00 | 27 | 998.5 |
| 20260504174553 | 20 | 286 | 8.0 | 24.1 | 0.00 | 0.00 | 0.00 | 25 | 998.7 |
| 20260504173050 | 21 | 258 | 14.5 | 22.5 | 0.00 | 0.00 | 0.00 | 25 | 998.9 |
| 20260504171549 | 21 | 241 | 8.0 | 16.1 | 0.00 | 0.00 | 0.00 | 25 | 999.1 |
| 20260504081541 | 10 | 325 | 6.4 | 9.7 | 0.00 | 0.00 | 0.00 | 41 | 1000.7 |
| 20260504050014 | 13 | 360 | 4.8 | 9.7 | 0.00 | 0.00 | 0.00 | 34 | 1001.6 |
| 20260504044522 | 13 | 355 | 8.0 | 14.5 | 0.00 | 0.00 | 0.00 | 33 | 1001.5 |
| 20260504043016 | 14 | 11 | 11.3 | 17.7 | 0.00 | 0.00 | 0.00 | 31 | 1001.6 |
| 20260504041512 | 15 | 15 | 12.9 | 19.3 | 0.00 | 0.00 | 0.00 | 28 | 1001.6 |
| 20260504040011 | 16 | 38 | 14.5 | 19.3 | 0.00 | 0.00 | 0.00 | 25 | 1001.6 |
| 20260504034510 | 17 | 16 | 19.3 | 25.7 | 0.00 | 0.00 | 0.00 | 24 | 1001.4 |
| 20260504033009 | 16 | 343 | 11.3 | 14.5 | 0.00 | 0.00 | 0.00 | 25 | 1001.0 |
| 20260504031509 | 16 | 272 | 6.4 | 14.5 | 0.00 | 0.00 | 0.00 | 27 | 1000.7 |
| 20260504030010 | 16 | 271 | 4.8 | 6.4 | 0.00 | 0.00 | 0.00 | 27 | 1000.5 |
| 20260504024509 | 16 | 274 | 6.4 | 9.7 | 0.00 | 0.00 | 0.00 | 26 | 1000.4 |
| 20260504023009 | 17 | 298 | 6.4 | 9.7 | 0.00 | 0.00 | 0.00 | 25 | 1000.3 |
| 20260504021507 | 18 | 232 | 1.6 | 8.0 | 0.00 | 0.00 | 0.00 | 25 | 1000.1 |
| 20260504020012 | 20 | 230 | 1.6 | 8.0 | 0.00 | 0.00 | 0.00 | 24 | 999.9 |
| 20260504014507 | 20 | 238 | 4.8 | 11.3 | 0.00 | 0.00 | 0.00 | 23 | 999.8 |
| 20260504013004 | 21 | 181 | 9.7 | 16.1 | 0.00 | 0.00 | 0.00 | 23 | 999.8 |
| 20260504011504 | 21 | 173 | 6.4 | 11.3 | 0.00 | 0.00 | 0.00 | 23 | 999.8 |
| 20260504010002 | 21 | 226 | 3.2 | 8.0 | 0.00 | 0.00 | 0.00 | 23 | 1000.1 |
| 20260504004501 | 20 | 268 | 6.4 | 11.3 | 0.00 | 0.00 | 0.00 | 23 | 1000.1 |
| 20260504003104 | 20 | 55 | 1.6 | 8.0 | 0.00 | 0.00 | 0.00 | 25 | 1000.1 |
| 20260504001618 | 21 | 16 | 1.6 | 6.4 | 0.00 | 0.00 | 0.00 | 21 | 1000.1 |
| 20260504000059 | 20 | 111 | 1.6 | 11.3 | 0.00 | 0.00 | 0.00 | 23 | 1000.3 |
| 20260503234556 | 21 | 90 | 4.8 | 12.9 | 0.00 | 0.00 | 0.00 | 25 | 1000.4 |
| 20260503233055 | 21 | 155 | 6.4 | 16.1 | 0.00 | 0.00 | 0.00 | 22 | 1000.4 |
| 20260503231555 | 21 | 97 | 3.2 | 9.7 | 0.00 | 0.00 | 0.00 | 21 | 1000.5 |
| 20260503230058 | 22 | 137 | 4.8 | 20.9 | 0.00 | 0.00 | 0.00 | 21 | 1000.6 |
| 20260503224552 | 22 | 155 | 0.0 | 9.7 | 0.00 | 0.00 | 0.00 | 19 | 1000.6 |
| 20260503223052 | 22 | 26 | 1.6 | 8.0 | 0.00 | 0.00 | 0.00 | 18 | 1000.9 |
| 20260503221551 | 22 | 5 | 16.1 | 22.5 | 0.00 | 0.00 | 0.00 | 18 | 1000.7 |
| 20260503220053 | 22 | 32 | 12.9 | 30.6 | 0.00 | 0.00 | 0.00 | 18 | 1000.9 |